Flag for Spain Weather past 2 weeks in Las Palmas, Canary Islands, Spain

Now
75 °F

Passing clouds.


Feels Like: 77 °F
Forecast: 73 / 78 °F
Wind: 21 mph from North

Location: Las Palmas De Gran Canaria / Gando

Current Time: Jul 31, 2015 at 1:03:18 AM

Latest Report: Jul 31, 2015 at 12:30 AM


Visibility: N/A

Pressure: 30.01 "Hg

Humidity: 65%

Dew point: 63 °F

Location of Las PalmasLocation

Historic Weather in Las Palmas — Graph

°F

Las Palmas temperature yesterday

Maximum temperature yesterday: 84 °F (at 3:00 PM)
Minimum temperature yesterday: 73 °F (at 1:00 AM)
Average temperature yesterday: 77 °F

Past Weeks' High & Low Weather Summary

 TemperatureHumidityPressure
High88 °F (Jul 23, 2:30 PM)83% (Jul 16, 12:30 AM)30.12 "Hg (Jul 16, 12:30 AM)
Low70 °F (Jul 17, 4:00 AM)27% (Jul 23, 8:00 PM)29.89 "Hg (Jul 21, 6:00 AM)
Average77 °F66%30.01 "Hg
* Reported Midnight between Jul 15 and Jul 16 — Midnight between Jul 30 and Jul 31, Las Palmas, Weather by CustomWeather, © 2015

Note: Actual official high and low records may vary slightly from our data, if they occured in-between our weather recording intervals... More about our weather records

Advertising

Las Palmas weather history for previous 24 hours

 ConditionsComfort  
Time TempWeatherWind HumidityBarometerVisibility
12:00 AM
Fri, Jul 31
75 °FPassing clouds.22 mph69%30.01 "HgN/A
11:30 PM
Thu, Jul 30
75 °FPassing clouds.25 mph65%30.01 "HgN/A
11:00 PM75 °FPassing clouds.23 mph65%30.01 "HgN/A
10:30 PM75 °FPassing clouds.23 mph65%29.98 "HgN/A
10:00 PM77 °FPassing clouds.21 mph57%29.98 "HgN/A
9:30 PM75 °FPassing clouds.23 mph65%29.98 "HgN/A
9:00 PM77 °FPassing clouds.24 mph61%29.95 "HgN/A
8:30 PM77 °FPassing clouds.24 mph65%29.95 "HgN/A
8:00 PM77 °FPassing clouds.29 mph65%29.95 "HgN/A
7:30 PM79 °FPassing clouds.29 mph61%29.95 "HgN/A
7:00 PM79 °FPassing clouds.28 mph61%29.95 "HgN/A
6:30 PM81 °FPassing clouds.30 mph58%29.95 "HgN/A
6:00 PM81 °FPassing clouds.31 mph54%29.95 "HgN/A
5:30 PM81 °FPassing clouds.26 mph54%29.98 "HgN/A
5:00 PM82 °FPassing clouds.31 mph51%29.98 "HgN/A
4:30 PM82 °FPassing clouds.30 mph51%29.98 "HgN/A
4:00 PM82 °FPassing clouds.29 mph51%29.98 "HgN/A
3:30 PM82 °FPassing clouds.30 mph51%29.98 "HgN/A
3:00 PM84 °FPassing clouds.31 mph48%29.98 "HgN/A
2:30 PM82 °FPassing clouds.32 mph51%30.01 "HgN/A
2:00 PM82 °FPassing clouds.32 mph51%30.01 "HgN/A
1:30 PM81 °FPassing clouds.35 mph54%30.01 "HgN/A
1:00 PM81 °FPassing clouds.31 mph58%30.01 "HgN/A
12:30 PM81 °FPassing clouds.30 mph54%30.01 "HgN/A
12:00 PM81 °FPassing clouds.33 mph51%30.01 "HgN/A
11:30 AM79 °FPassing clouds.32 mph58%30.01 "HgN/A
11:00 AM79 °FPassing clouds.30 mph61%30.01 "HgN/A
10:30 AM79 °FScattered clouds.29 mph58%30.01 "HgN/A
10:00 AM77 °FScattered clouds.32 mph61%30.01 "HgN/A
9:30 AM77 °FPassing clouds.29 mph65%30.01 "HgN/A
9:00 AM75 °FScattered clouds.30 mph74%29.98 "HgN/A
8:30 AM73 °FPassing clouds.24 mph69%29.98 "HgN/A
8:00 AM73 °FPassing clouds.24 mph69%30.01 "HgN/A
7:30 AM73 °FPassing clouds.26 mph74%29.98 "HgN/A
7:00 AM73 °FPassing clouds.26 mph69%29.98 "HgN/A
6:30 AM73 °FPassing clouds.24 mph74%29.98 "HgN/A
6:00 AM73 °FPassing clouds.24 mph74%29.98 "HgN/A
5:30 AM73 °FPassing clouds.25 mph69%29.98 "HgN/A
5:00 AM73 °FPassing clouds.26 mph69%29.98 "HgN/A
4:30 AM73 °FPassing clouds.24 mph74%29.98 "HgN/A
4:00 AM73 °FPassing clouds.24 mph74%29.98 "HgN/A
3:30 AM73 °FPassing clouds.22 mph74%30.01 "HgN/A
3:00 AM73 °FPassing clouds.23 mph74%30.01 "HgN/A
2:30 AM73 °FPassing clouds.25 mph74%30.01 "HgN/A
2:00 AM73 °FPassing clouds.26 mph74%30.04 "HgN/A
1:30 AM73 °FPassing clouds.25 mph69%30.04 "HgN/A
1:00 AM73 °FPassing clouds.26 mph74%30.04 "HgN/A
Weather by CustomWeather, © 2015

See weather overviewHow to use our weather pages